• In Moldova, Republic
  • List of Countries
  • For 7 days
  • Water Temperature
  • Satellite Maps
  • Weather Map
  • Weather Widgets
  • user-avatar
    Login

    Hourly Weather Durres

    Today, 19 November, Sunday

    Time Temperature Precipitation Wind Pressure Humidity
    00:00 +13°C° 0 mm 4 mps 758 mmHg 74%
    01:00 +13°C° 0 mm 4 mps 758 mmHg 75%
    02:00 +12°C° 0 mm 4 mps 757 mmHg 76%
    03:00 +12°C° 0 mm 3 mps 757 mmHg 77%
    04:00 +11°C° 0 mm 3 mps 757 mmHg 78%
    05:00 +11°C° 0 mm 3 mps 757 mmHg 78%
    06:00 +11°C° 0 mm 3 mps 757 mmHg 78%
    07:00 +11°C° 0 mm 3 mps 758 mmHg 78%
    08:00 +12°C° 0 mm 3 mps 758 mmHg 72%
    09:00 +15°C° 0 mm 2 mps 758 mmHg 66%
    10:00 +16°C° 0 mm 2 mps 758 mmHg 60%
    11:00 +17°C° 0 mm 2 mps 757 mmHg 58%
    12:00 +17°C° 0 mm 3 mps 757 mmHg 57%
    13:00 +17°C° 0 mm 3 mps 757 mmHg 56%
    14:00 +17°C° 0 mm 3 mps 757 mmHg 60%
    15:00 +15°C° 0 mm 4 mps 757 mmHg 64%
    16:00 +14°C° 0 mm 4 mps 756 mmHg 68%
    17:00 +13°C° 0.1 mm 4 mps 756 mmHg 70%
    18:00 +13°C° 0.1 mm 4 mps 757 mmHg 73%
    19:00 +12°C° 0.1 mm 4 mps 757 mmHg 76%
    20:00 +12°C° 0.4 mm 4 mps 757 mmHg 79%
    21:00 +12°C° 0.4 mm 5 mps 757 mmHg 82%
    22:00 +10°C° 0.4 mm 6 mps 757 mmHg 86%
    23:00 +10°C° 0.4 mm 6 mps 757 mmHg 88%

    Tomorrow, 20 November, Monday

    Time Temperature Precipitation Wind Pressure Humidity
    00:00 +9°C° 0.4 mm 7 mps 758 mmHg 90%
    01:00 +9°C° 0.4 mm 7 mps 758 mmHg 92%
    02:00 +9°C° 0.4 mm 7 mps 758 mmHg 91%
    03:00 +8°C° 0.4 mm 7 mps 758 mmHg 90%
    04:00 +8°C° 0.4 mm 7 mps 758 mmHg 89%
    05:00 +8°C° 0.2 mm 7 mps 759 mmHg 87%
    06:00 +6°C° 0.2 mm 7 mps 759 mmHg 85%
    07:00 +6°C° 0.2 mm 7 mps 760 mmHg 83%
    08:00 +8°C° 0 mm 7 mps 760 mmHg 74%
    09:00 +9°C° 0 mm 7 mps 761 mmHg 64%
    10:00 +10°C° 0 mm 7 mps 762 mmHg 54%
    11:00 +11°C° 0 mm 7 mps 762 mmHg 50%
    12:00 +11°C° 0 mm 7 mps 762 mmHg 46%
    13:00 +11°C° 0 mm 7 mps 762 mmHg 43%
    14:00 +10°C° 0 mm 7 mps 762 mmHg 47%
    15:00 +9°C° 0 mm 7 mps 763 mmHg 50%
    16:00 +9°C° 0 mm 7 mps 763 mmHg 54%
    17:00 +8°C° 0 mm 6 mps 764 mmHg 57%
    18:00 +7°C° 0 mm 6 mps 764 mmHg 59%
    19:00 +5°C° 0 mm 6 mps 765 mmHg 61%
    20:00 +5°C° 0 mm 5 mps 765 mmHg 61%
    21:00 +5°C° 0 mm 5 mps 765 mmHg 61%
    22:00 +5°C° 0 mm 4 mps 766 mmHg 61%
    23:00 +5°C° 0 mm 4 mps 766 mmHg 60%

    Day after tomorrow, 21 November, Tuesday

    Time Temperature Precipitation Wind Pressure Humidity
    00:00 +5°C° 0 mm 4 mps 766 mmHg 60%
    01:00 +5°C° 0 mm 4 mps 766 mmHg 59%
    02:00 +5°C° 0 mm 3 mps 766 mmHg 58%
    03:00 +5°C° 0 mm 3 mps 766 mmHg 56%
    04:00 +4°C° 0 mm 3 mps 765 mmHg 55%
    05:00 +5°C° 0 mm 3 mps 765 mmHg 53%
    06:00 +5°C° 0 mm 3 mps 765 mmHg 52%
    07:00 +5°C° 0 mm 3 mps 765 mmHg 50%
    08:00 +8°C° 0 mm 2 mps 765 mmHg 45%
    09:00 +9°C° 0 mm 2 mps 765 mmHg 41%
    10:00 +12°C° 0 mm 2 mps 765 mmHg 36%
    11:00 +13°C° 0 mm 2 mps 765 mmHg 36%
    12:00 +13°C° 0 mm 2 mps 765 mmHg 36%
    13:00 +14°C° 0 mm 1 mps 764 mmHg 36%
    14:00 +13°C° 0 mm 1 mps 764 mmHg 41%
    15:00 +12°C° 0 mm 1 mps 764 mmHg 47%
    16:00 +11°C° 0 mm 1 mps 764 mmHg 52%
    17:00 +9°C° 0 mm 2 mps 765 mmHg 53%
    18:00 +9°C° 0 mm 2 mps 765 mmHg 54%
    19:00 +8°C° 0 mm 2 mps 765 mmHg 55%
    20:00 +8°C° 0 mm 2 mps 765 mmHg 56%
    21:00 +8°C° 0 mm 2 mps 765 mmHg 57%
    22:00 +8°C° 0 mm 2 mps 765 mmHg 58%
    23:00 +8°C° 0 mm 2 mps 765 mmHg 59%

    22 November, Wednesday

    Time Temperature Precipitation Wind Pressure Humidity
    00:00 +7°C° 0 mm 2 mps 765 mmHg 60%
    01:00 +7°C° 0 mm 2 mps 765 mmHg 62%
    02:00 +7°C° 0 mm 2 mps 765 mmHg 63%
    03:00 +7°C° 0 mm 2 mps 765 mmHg 64%
    04:00 +7°C° 0 mm 2 mps 765 mmHg 65%
    05:00 +7°C° 0 mm 2 mps 765 mmHg 65%
    06:00 +7°C° 0 mm 2 mps 765 mmHg 66%
    07:00 +7°C° 0 mm 2 mps 765 mmHg 66%
    08:00 +10°C° 0 mm 2 mps 765 mmHg 61%
    09:00 +13°C° 0 mm 2 mps 765 mmHg 56%
    10:00 +15°C° 0 mm 1 mps 765 mmHg 51%
    11:00 +15°C° 0 mm 1 mps 765 mmHg 51%
    12:00 +16°C° 0 mm 2 mps 765 mmHg 51%
    13:00 +16°C° 0 mm 2 mps 765 mmHg 51%
    14:00 +15°C° 0 mm 2 mps 765 mmHg 58%
    15:00 +14°C° 0 mm 2 mps 765 mmHg 65%
    16:00 +13°C° 0 mm 2 mps 765 mmHg 72%
    17:00 +12°C° 0 mm 2 mps 765 mmHg 73%
    18:00 +12°C° 0 mm 2 mps 765 mmHg 74%
    19:00 +10°C° 0 mm 2 mps 766 mmHg 75%
    20:00 +10°C° 0 mm 2 mps 766 mmHg 73%
    21:00 +11°C° 0 mm 1 mps 766 mmHg 72%
    22:00 +11°C° 0 mm 1 mps 766 mmHg 71%
    23:00 +11°C° 0 mm 1 mps 766 mmHg 70%

    23 November, Thursday

    Time Temperature Precipitation Wind Pressure Humidity
    00:00 +11°C° 0 mm 1 mps 766 mmHg 68%
    01:00 +10°C° 0 mm 1 mps 766 mmHg 67%
    02:00 +10°C° 0 mm 1 mps 766 mmHg 66%
    03:00 +10°C° 0 mm 1 mps 766 mmHg 65%
    04:00 +10°C° 0 mm 1 mps 766 mmHg 64%
    05:00 +10°C° 0 mm 1 mps 766 mmHg 63%
    06:00 +10°C° 0 mm 1 mps 766 mmHg 62%
    07:00 +10°C° 0 mm 1 mps 767 mmHg 61%
    08:00 +12°C° 0 mm 1 mps 767 mmHg 55%
    09:00 +14°C° 0 mm 1 mps 767 mmHg 50%
    10:00 +18°C° 0 mm 1 mps 767 mmHg 44%
    11:00 +18°C° 0 mm 1 mps 767 mmHg 44%
    12:00 +19°C° 0 mm 1 mps 767 mmHg 44%
    13:00 +19°C° 0 mm 1 mps 766 mmHg 44%
    14:00 +18°C° 0 mm 1 mps 767 mmHg 51%
    15:00 +15°C° 0 mm 2 mps 767 mmHg 59%
    16:00 +14°C° 0 mm 2 mps 767 mmHg 66%
    17:00 +13°C° 0 mm 2 mps 767 mmHg 67%
    18:00 +13°C° 0 mm 1 mps 767 mmHg 69%
    19:00 +12°C° 0 mm 1 mps 768 mmHg 70%
    20:00 +12°C° 0 mm 1 mps 768 mmHg 68%
    21:00 +12°C° 0 mm 1 mps 768 mmHg 67%
    22:00 +12°C° 0 mm 1 mps 768 mmHg 65%
    23:00 +12°C° 0 mm 1 mps 768 mmHg 63%

    24 November, Friday

    Time Temperature Precipitation Wind Pressure Humidity
    00:00 +11°C° 0 mm 1 mps 768 mmHg 62%
    01:00 +11°C° 0 mm 1 mps 768 mmHg 60%
    02:00 +11°C° 0 mm 1 mps 768 mmHg 58%
    03:00 +11°C° 0 mm 1 mps 768 mmHg 57%
    04:00 +11°C° 0 mm 1 mps 768 mmHg 55%
    05:00 +11°C° 0 mm 1 mps 768 mmHg 54%
    06:00 +11°C° 0 mm 1 mps 768 mmHg 53%
    07:00 +11°C° 0 mm 1 mps 769 mmHg 52%
    08:00 +13°C° 0 mm 1 mps 768 mmHg 49%
    09:00 +15°C° 0 mm 1 mps 768 mmHg 45%
    10:00 +18°C° 0 mm 1 mps 768 mmHg 41%
    11:00 +18°C° 0 mm 1 mps 768 mmHg 42%
    12:00 +19°C° 0 mm 1 mps 768 mmHg 43%
    13:00 +19°C° 0 mm 1 mps 768 mmHg 43%
    14:00 +18°C° 0 mm 1 mps 768 mmHg 51%
    15:00 +16°C° 0 mm 1 mps 768 mmHg 59%
    16:00 +14°C° 0 mm 1 mps 768 mmHg 67%
    17:00 +14°C° 0 mm 1 mps 768 mmHg 68%
    18:00 +13°C° 0 mm 1 mps 768 mmHg 70%
    19:00 +12°C° 0 mm 1 mps 768 mmHg 71%
    20:00 +12°C° 0 mm 1 mps 769 mmHg 70%
    21:00 +12°C° 0 mm 1 mps 769 mmHg 68%
    22:00 +12°C° 0 mm 1 mps 769 mmHg 67%
    23:00 +12°C° 0 mm 1 mps 769 mmHg 65%
    Show more